Home   Weather   Vestby   Past weeks

Flag for Norway Past Weather in Vestby, Norway — Yesterday and Last 2 Weeks

Now
37 °F

Chilly.


Feels Like: 30 °F
Forecast: 33 / 44 °F
Wind: 10 mph from Southwest

Location: Rygge

Current Time: Jan 19, 2017 at 7:47:00 am

Latest Report: Jan 19, 2017 at 6:50 am


Visibility: N/A

Pressure: 30.24 "Hg

Humidity: 93%

Dew Point: 36 °F

Location of VestbyLocation

Past Weather in Vestby — Graph

°F

Vestby Temperature Yesterday

Maximum temperature yesterday: 34 °F (at 1:50 pm)
Minimum temperature yesterday: 28 °F (at 7:20 am)
Average temperature yesterday: 31 °F

High & Low Weather Summary for the Past Weeks

 TemperatureHumidityPressure
High43 °F (Jan 9, 4:20 pm)100% (Jan 6, 4:20 pm)30.66 "Hg (Jan 6, 4:20 pm)
Low10 °F (Jan 5, 6:50 am)43% (Jan 4, 11:20 am)28.50 "Hg (Jan 11, 2:50 pm)
Average30 °F84%29.88 "Hg
* Reported Jan 4 6:20 am — Jan 19 6:20 am, Vestby, Weather by CustomWeather, © 2017

Note: Actual official high and low records may vary slightly from our data, if they occured in-between our weather recording intervals... More about our weather records

Advertising

Vestby Weather History for the Previous 24 Hours

Scroll right to see more
 ConditionsComfort  
Time TempWeatherWind HumidityBarometerVisibility
6:20 am
Thu, Jan 19
37 °FChilly.8 mph93%30.24 "HgN/A
5:50 am37 °FChilly.10 mph93%30.27 "HgN/A
5:20 am37 °FChilly.9 mph93%30.27 "HgN/A
4:50 am36 °FChilly.13 mph100%30.27 "HgN/A
4:20 am36 °FChilly.7 mph93%30.27 "HgN/A
3:50 am36 °FChilly.10 mph100%30.27 "HgN/A
3:20 am36 °FChilly.8 mph93%30.27 "HgN/A
2:50 am30 °FChilly.2 mph100%30.27 "Hg5 mi
2:20 am36 °FChilly.6 mph93%30.27 "Hg1 mi
1:50 am32 °FChilly.1 mph100%30.27 "HgN/A
1:20 am32 °FChilly.3 mph100%30.27 "Hg6 mi
12:50 am32 °FPassing clouds.No wind100%30.27 "HgN/A
12:20 am32 °FPassing clouds.3 mph100%30.27 "HgN/A
11:50 pm
Wed, Jan 18
32 °FPassing clouds.3 mph100%30.27 "HgN/A
11:20 pm32 °FPassing clouds.6 mph100%30.27 "HgN/A
10:50 pm30 °FPassing clouds.2 mph100%30.27 "Hg2 mi
10:20 pm30 °FPassing clouds.2 mph100%30.27 "Hg1 mi
9:50 pm30 °FChilly.2 mph93%30.27 "Hg0 mi
9:20 pm30 °FIce fog.2 mph100%30.27 "Hg0 mi
8:50 pm30 °FIce fog.1 mph100%30.27 "Hg0 mi
8:20 pm30 °FIce fog.3 mph100%30.27 "Hg0 mi
7:50 pm30 °FIce fog.No wind100%30.27 "Hg0 mi
7:20 pm32 °FIce fog.2 mph100%30.27 "Hg0 mi
6:50 pm32 °FFog.No wind100%30.27 "Hg0 mi
6:20 pm34 °FFog.5 mph100%30.27 "Hg0 mi
5:50 pm32 °FFog.1 mph100%30.27 "Hg0 mi
5:20 pm34 °FFog.3 mph100%30.27 "Hg0 mi
4:50 pm32 °FIce fog.2 mph100%30.27 "Hg0 mi
4:20 pm32 °FFog.1 mph100%30.27 "Hg0 mi
3:50 pm32 °FFog.1 mph100%30.27 "Hg0 mi
3:20 pm34 °FFog.2 mph93%30.27 "Hg0 mi
2:50 pm34 °FFog.3 mph100%30.27 "Hg0 mi
2:20 pm34 °FFog.2 mph100%30.30 "Hg0 mi
1:50 pm34 °FFog.2 mph100%30.30 "Hg0 mi
1:20 pm32 °FFog.2 mph100%30.30 "Hg0 mi
12:50 pm32 °FFog.2 mph100%30.30 "Hg0 mi
12:20 pm32 °FFog.2 mph100%30.30 "Hg0 mi
11:50 am32 °FFog.3 mph100%30.33 "Hg0 mi
11:20 am32 °FIce fog.5 mph100%30.33 "Hg0 mi
10:50 am32 °FIce fog.6 mph100%30.33 "Hg0 mi
10:20 am30 °FIce fog.5 mph100%30.33 "Hg0 mi
9:50 am30 °FIce fog.7 mph100%30.33 "Hg0 mi
9:20 am30 °FIce fog.5 mph100%30.33 "Hg0 mi
8:50 am30 °FIce fog.7 mph100%30.33 "Hg0 mi
8:20 am30 °FIce fog.6 mph93%30.33 "Hg0 mi
7:50 am28 °FIce fog.6 mph100%30.33 "Hg0 mi
7:20 am28 °FIce fog.2 mph100%30.33 "Hg0 mi
Weather by CustomWeather, © 2017

See weather overviewHow to use our weather pages